#timestamp,LO_Frequency,Hit,StdDev 
1557295215.1,286047015.9,N
1557295235.9,286047014.8,N
1557295255.7,286047011.1,N
1557295275.5,286047012.0,N
1557295295.4,286047009.8,N
1557295315.2,286047006.1,N
1557295335.1,286047015.3,Y
1557295336.0,286047015.3,P
1557295355.8,286047000.2,N
1557295375.6,286047001.1,N
1557295395.5,286046999.0,N
1557295415.3,286047000.5,N
1557295435.3,286047001.1,N
1557295455.1,286046994.9,N
1557295475.8,286046996.2,N
1557295495.7,286046995.2,N
1557295515.5,286046991.8,N
1557295535.4,286046994.3,N
1557295555.3,286046990.3,N
1557295575.2,286046990.4,N
1557295595.0,286046988.7,N
1557295595.9,286046988.7,N
1557295615.8,286046991.6,N
1557295635.6,286046986.9,N
1557295655.4,286046987.6,N
1557295675.3,286046988.2,N
1557295695.1,286046988.3,N
1557295715.8,286046985.6,N
1557295735.7,286046986.7,N
1557295755.5,286046983.9,N
1557295775.4,286046982.5,N
1557295795.2,286046984.8,N
1557295815.0,286046982.2,N
1557295815.9,286046982.2,N
1557295835.8,286046985.2,N
1557295855.6,286046985.1,N
1557295875.4,286046984.4,N
1557295895.3,286046983.9,N
1557295915.1,286046984.6,N
1557295935.8,286046984.5,N
1557295955.7,286046982.7,Y
1557295975.5,286046991.7,P
1557295995.3,286046991.7,P
1557296015.2,286046991.9,P
1557296035.9,286046992.0,Y
1557296055.7,286047001.7,P
1557296075.6,286047011.9,N
1557296095.4,286047002.3,N
1557296115.3,286047000.4,N
1557296135.1,286047000.9,N
1557296136.0,286047000.9,N
1557296155.8,286047000.2,N
1557296175.7,286047002.6,N
1557296195.5,286047002.5,N
1557296215.3,286047001.9,N
1557296235.2,286047000.3,N
1557296255.0,286047000.4,N
1557296255.9,286047000.4,N
1557296275.8,286047000.5,N
1557296295.6,286047001.5,N
1557296315.4,286047002.1,N
1557296335.3,286047002.6,N
1557296355.1,286047002.1,N
1557296375.8,286047002.1,N
1557296395.7,286047002.5,N
1557296415.5,286047004.0,N
1557296435.4,286046999.8,N
1557296455.2,286047001.0,N
1557296475.0,286046998.5,N
1557296475.9,286046998.5,N
1557296495.8,286046998.4,N
1557296515.6,286047000.7,N
1557296535.4,286046998.6,N
1557296555.3,286046998.1,N
1557296575.1,286046999.9,N
1557296595.9,286047000.0,N
1557296615.7,286046998.1,N
1557296635.6,286047000.4,N
1557296655.5,286047002.5,N
1557296675.3,286047004.0,N
1557296695.2,286047002.2,N
1557296715.3,286047004.3,N
1557296735.1,286047001.4,N
1557296736.0,286047001.4,N
1557296755.8,286047002.8,N
1557296775.7,286047002.1,N
1557296795.5,286047002.6,N
1557296815.3,286047002.0,N
1557296835.2,286047000.9,N
1557296855.0,286047000.7,N
1557296855.9,286047000.7,N
1557296875.8,286047002.0,N
1557296895.6,286047002.1,N
1557296915.4,286047002.1,N
1557296935.3,286047001.2,N
1557296955.1,286046999.3,N
1557296975.8,286046999.5,N
1557296995.7,286047000.8,N
1557297015.5,286046998.1,N
1557297035.4,286046996.9,N
1557297055.2,286046997.1,N
1557297075.0,286046996.5,N
1557297075.9,286046996.5,N
1557297095.8,286046998.1,N
1557297115.6,286047002.8,N
1557297135.4,286047001.5,N
1557297155.3,286047001.7,N
1557297175.1,286047004.4,N
1557297195.9,286047002.0,N
1557297215.7,286047001.3,N
1557297235.5,286047002.5,N
1557297255.4,286047000.5,N
1557297275.2,286047001.1,N
1557297295.0,286047001.1,N
1557297295.9,286047001.1,N
1557297315.8,286047001.0,N
1557297335.6,286047000.0,N
1557297355.5,286047001.8,N
1557297375.3,286047003.6,N
1557297395.1,286047003.9,N
1557297415.9,286047002.0,N
1557297435.7,286047002.7,N
1557297455.5,286047002.0,N
1557297475.4,286047002.3,N
1557297495.2,286047002.3,N
1557297515.1,286047002.7,N
1557297516.0,286047002.7,N
1557297535.8,286046999.8,N
1557297555.6,286047002.7,N
1557297575.5,286047000.5,N
1557297595.3,286047002.5,N
1557297615.1,286047002.2,N
1557297635.9,286047004.1,N
1557297655.7,286047001.4,N
1557297675.6,286047003.7,Y
1557297695.4,286047002.7,P
1557297715.2,286047001.5,P
1557297735.1,286047001.3,N
1557297736.0,286047001.3,N
1557297755.8,286047001.3,N
1557297775.6,286047003.7,Y
1557297795.5,286046999.9,P
1557297815.3,286047000.8,N
1557297835.2,286046998.5,N
1557297855.9,286046998.7,N
1557297875.7,286046999.0,N
1557297895.6,286046997.3,N
1557297915.4,286046998.5,N
1557297935.3,286046999.7,N
1557297955.1,286046999.7,N
1557297956.0,286046999.7,N
1557297975.8,286047002.6,N
1557297995.7,286047000.5,N
1557298015.5,286047001.2,N
1557298035.3,286047001.2,N
1557298055.2,286046999.2,N
1557298075.0,286046998.5,N
1557298075.9,286046998.5,N
1557298095.8,286046996.5,N
1557298115.6,286046996.7,N
1557298135.4,286047000.5,N
1557298155.3,286047000.8,N
1557298175.1,286046998.9,N
1557298195.9,286046998.1,N
1557298215.7,286046999.4,N
1557298235.5,286046998.7,N
1557298255.4,286047001.5,N
1557298275.2,286047000.6,N
1557298295.0,286047000.6,N
1557298295.9,286047000.6,N
1557298315.8,286047004.4,Y
1557298335.6,286047001.6,P
1557298355.5,286047000.1,N
1557298375.3,286047001.7,N
1557298395.1,286047002.0,N
1557298415.9,286047001.3,N
1557298435.7,286047005.5,Y
1557298455.5,286047005.1,P
1557298475.4,286047004.1,N
1557298495.2,286046999.9,N
1557298515.1,286047000.8,N
1557298516.0,286047000.8,N
1557298535.8,286046998.2,N
1557298555.6,286047002.5,N
1557298575.5,286047001.8,N
1557298595.3,286046999.8,N
1557298615.1,286047002.8,N
1557298635.9,286047002.4,N
1557298655.7,286047002.5,N
1557298675.5,286047001.9,N
1557298695.4,286047002.0,N
1557298715.2,286047002.0,N
1557298735.1,286047002.2,N
1557298736.0,286047002.2,N
1557298755.8,286047000.4,N
1557298775.6,286047000.9,N
1557298795.5,286047002.4,N
